Вернуться в каталог

CZ-6A DEB

АктивенSSO
NORAD 54284·DEBRIS·🇨🇳 China

Запущен Nov 11, 2022 с Taiyuan Satellite Launch Center

Loading…

Ближайшие Пролёты (ближайшие 24 часа)

TLE

СвежийSource: Space-Track

Эпоха: Sep 14, 2026, 11:24 UTC

1 54284U 22151AB  26257.47541775  .00001378  00000-0  69926-3 0  9990
2 54284  98.8321 262.9449 0043685  65.2094 295.3616 14.17120575197477

Отслеживайте CZ-6A DEB в реальном времени с AllMySat

Download on the App Store